Location: Cheching
(60.0667°N, 164.2167°W)
Time: 07:32:24
(UTC+00:00)

XW-2D - Pass Details

Date: 23 January 2021
Orbit: 505 x 525 km, 97.5° (Epoch: 09 March)

Event Time Altitude Azimuth Distance (km) Brightness Sun altitude
Rises 16:40:55 0° 19° (NNE) 2,674 ? -20.1°
Reaches altitude 10° 16:43:08 10° 27° (NNE) 1,782 ? -19.8°
Maximum altitude 16:46:47 41° 98° (E) 784 ? -19.3°
Drops below altitude 10° 16:50:25 10° 170° (S) 1,772 ? -18.9°
Sets 16:52:36 0° 177° (S) 2,657 ? -18.6°
